Location: D�derode
(51.8092°N, 10.1065°E)
Time: 06:24:13
(UTC+00:00)

Cosmos 1805 Rocket - Pass Details

Date: 01 December 2020
Orbit: 605 x 631 km, 82.5° (Epoch: 23 January)

Event Time Altitude Azimuth Distance (km) Brightness Sun altitude
Rises 15:50:58 0° 349° (N) 2,935 6.8 -5.9°
Reaches altitude 10° 15:53:14 10° 350° (N) 2,021 6.0 -6.2°
Maximum altitude 15:57:43 87° 76° (ENE) 635 3.6 -6.8°
Drops below altitude 10° 16:02:09 10° 170° (S) 1,991 6.4 -7.4°
Sets 16:04:21 0° 170° (S) 2,889 7.2 -7.7°
